Theta_e
339 337 324 318 305 304 301 307 321 321 321 327 327 322 319 324 323 316 346 352 355 354 356 356 360 361 359 357 357 357 357 358 359 359 359 359 359 358 358 358 359 358 357 356 354 353 352 351 350
331 330 317 308 300 294 296 308 313 321 327 328 326 323 321 322 335 338 339 349 352 351 354 355 362 362 359 358 358 357 357 357 357 359 359 359 358 357 356 356 355 354 353 352 351 350 349 347 346
322 319 310 302 297 295 296 303 312 326 329 329 326 330 327 328 336 339 343 349 353 352 353 355 362 361 359 358 359 359 357 357 356 357 358 358 358 357 356 355 355 354 353 353 352 351 350 349 349
319 309 305 300 298 299 301 306 324 326 329 329 327 322 332 339 339 343 348 350 352 352 352 355 359 360 359 358 358 359 358 357 357 356 355 355 355 355 356 355 355 355 355 355 354 352 351 350 350
306 303 296 293 294 299 305 318 321 320 325 326 327 322 326 338 342 345 347 349 349 350 353 354 360 360 359 358 358 358 358 358 357 357 356 355 355 354 354 354 355 355 356 356 356 355 353 352 350
301 299 293 290 294 298 312 319 322 320 322 324 325 322 324 336 338 341 347 345 349 348 351 352 358 360 360 359 358 358 358 357 356 356 355 354 353 353 353 353 354 355 355 356 355 355 355 355 352
298 295 291 291 293 296 311 320 319 320 319 322 324 316 324 331 337 347 346 345 346 347 345 346 349 355 358 358 358 357 356 355 354 354 353 353 352 353 353 353 353 352 353 354 356 357 356 355 353
297 294 289 289 292 293 313 318 321 321 318 327 326 318 319 330 341 345 343 340 340 341 342 341 343 347 349 350 355 354 354 353 354 353 353 353 353 351 351 352 350 350 351 354 355 356 356 356 355
295 290 287 291 292 295 306 316 323 326 323 325 329 327 329 336 341 338 336 336 337 339 338 341 342 343 347 349 353 352 353 353 352 350 350 350 348 348 349 347 345 350 350 352 353 354 354 353 355
293 288 291 295 296 294 295 317 320 320 320 321 323 329 332 335 334 329 329 328 330 333 337 336 340 345 347 349 344 338 339 339 342 339 338 340 342 340 337 339 345 344 346 347 347 347 346 347 348
290 290 293 296 298 299 307 318 322 318 315 320 321 324 330 331 328 327 327 329 329 332 336 336 339 340 342 342 338 335 336 337 337 336 337 337 336 337 334 337 341 339 343 343 343 342 343 342 342
294 295 296 297 301 298 315 320 317 319 319 326 326 327 327 325 324 324 325 328 328 329 330 333 336 339 338 338 334 331 332 332 332 334 336 334 333 331 330 334 338 337 340 336 334 334 340 340 340
292 296 297 299 316 314 320 317 318 320 325 326 325 324 323 323 321 320 323 325 323 322 327 330 330 330 330 329 328 328 329 330 331 333 333 331 329 329 330 331 334 335 338 337 332 335 336 333 334
298 297 299 316 316 319 317 318 321 322 324 322 320 318 319 318 318 317 317 317 318 319 321 329 328 330 330 327 327 327 328 328 328 328 326 334 330 330 331 331 332 333 338 340 336 334 334 332 332
299 299 309 313 314 316 317 314 316 323 321 317 315 315 315 315 315 314 315 315 316 316 318 321 326 327 327 326 329 329 325 320 320 321 321 322 322 323 330 332 326 331 337 336 335 339 337 334 338
295 294 292 305 314 316 312 305 318 320 317 314 313 312 311 311 311 313 314 313 314 313 313 316 319 322 325 321 322 321 321 317 315 315 315 317 316 316 319 318 316 322 325 327 327 330 332 335 334
292 288 290 298 307 312 310 308 317 318 314 311 310 310 309 309 311 312 312 312 312 311 310 311 313 316 319 323 318 317 316 314 313 309 309 312 313 312 312 312 312 314 319 319 319 321 326 329 327
289 289 290 291 299 312 308 310 314 314 311 309 308 308 308 308 308 310 310 310 309 309 309 308 308 309 313 316 321 317 311 310 308 306 306 308 311 309 307 307 308 308 310 310 311 315 321 324 321
293 292 299 305 311 309 308 310 310 310 309 306 307 306 306 305 307 309 309 309 308 308 306 305 305 305 306 307 310 313 311 306 304 304 305 306 307 307 305 305 306 306 305 305 307 310 313 319 319
293 293 301 307 312 310 309 306 309 309 308 308 307 307 305 305 305 308 308 308 307 306 305 303 303 302 303 303 303 305 305 305 304 303 303 304 305 306 306 304 304 304 303 304 304 306 306 311 315
292 292 295 303 308 309 307 305 307 309 308 308 307 307 307 305 304 306 306 306 305 304 303 302 301 301 300 301 300 300 301 301 300 300 301 302 304 305 305 305 303 303 302 302 303 304 305 304 309
290 302 307 306 302 296 305 292 301 304 303 305 305 304 306 305 304 305 305 305 304 303 302 301 301 300 300 300 298 297 296 296 298 298 299 301 303 304 305 305 304 303 302 302 303 306 304 304 304
294 301 303 300 292 294 296 292 294 301 299 301 303 304 304 303 303 307 304 303 303 302 300 300 300 299 299 299 298 297 297 298 298 298 299 300 301 303 304 305 303 303 303 304 304 305 305 304 304
298 295 293 289 287 283 287 293 290 297 301 300 303 304 306 304 306 304 304 302 301 300 299 299 298 298 298 298 298 297 297 297 297 297 297 299 300 301 304 304 304 304 305 305 305 306 307 307 306
295 289 284 283 283 283 290 288 289 301 304 303 303 303 304 303 302 301 300 299 299 299 299 299 297 296 298 298 299 298 298 297 297 297 297 298 299 300 302 303 304 304 305 306 307 308 310 310 310
289 289 285 281 281 283 290 288 295 303 306 305 304 303 302 299 299 299 299 298 297 298 298 297 297 297 297 298 298 298 299 299 298 298 298 299 299 300 303 303 304 305 306 306 308 309 309 309 308
291 286 289 285 283 282 286 294 299 300 300 301 300 300 299 298 298 297 297 297 296 297 297 297 297 297 297 297 298 299 299 299 298 299 300 300 301 303 303 303 303 304 305 305 305 304 304 304 304
293 294 288 284 280 280 283 289 291 295 297 299 299 299 298 296 296 296 296 296 296 296 296 298 298 297 297 297 298 299 299 298 299 300 300 301 302 304 305 303 303 304 304 305 304 304 304 302 302
293 289 287 287 285 281 281 285 296 299 299 299 300 300 297 295 296 295 295 295 295 295 296 297 297 297 297 297 297 297 298 298 299 300 302 303 304 305 304 302 302 302 303 303 304 304 303 302 301
294 290 289 285 284 284 283 284 297 299 302 301 300 299 296 296 295 295 294 294 294 294 296 296 297 297 297 298 298 297 300 302 300 300 300 301 301 302 302 300 299 300 301 302 302 302 302 300 300
Wind_Speed
5 5 2 3 5 6 3 3 6 6 4 1 6 12 13 14 6 4 3 4 3 7 3 6 9 8 11 12 14 14 14 13 13 12 11 11 10 10 9 7 6 5 5 5 5 5 4 4 3
5 3 3 2 6 5 6 6 7 11 9 8 5 4 3 4 2 4 2 2 2 3 4 3 9 9 11 13 13 13 13 12 11 10 9 9 8 8 7 6 5 4 3 3 4 4 4 3 2
4 1 4 5 3 1 4 1 2 11 16 6 4 3 3 3 3 4 5 3 1 3 5 5 9 7 9 10 11 12 11 11 10 9 8 7 6 5 5 5 4 4 3 4 3 3 3 2 3
3 4 5 5 2 3 3 4 18 14 4 4 5 4 3 7 3 3 1 5 3 2 5 8 9 9 10 11 11 11 11 10 9 8 7 6 6 5 4 4 4 4 4 4 4 4 4 4 5
4 4 5 3 5 4 5 2 4 5 5 4 3 4 3 2 4 3 3 6 6 4 4 4 10 12 12 13 13 12 11 10 9 8 6 4 3 3 3 5 6 6 7 7 7 7 6 7 7
4 4 6 2 6 2 2 6 3 5 3 4 4 4 1 4 4 3 4 4 3 5 2 2 4 7 8 9 9 9 9 10 9 8 7 5 3 2 3 4 6 8 9 10 10 9 7 6 6
7 5 5 4 4 5 5 5 5 4 3 3 2 4 3 5 4 3 6 4 7 8 6 7 7 5 7 7 8 6 5 5 5 5 5 5 5 5 5 5 5 7 9 11 11 11 10 8 8
6 6 4 3 3 3 0 4 4 5 3 1 2 3 4 2 8 7 7 7 7 6 6 7 6 5 4 4 8 8 5 5 3 2 3 5 5 5 5 5 5 6 7 9 10 11 11 9 9
3 6 3 5 7 4 3 6 2 3 5 2 4 2 2 11 8 8 6 7 6 8 7 5 5 3 4 4 5 6 5 3 1 2 4 3 3 3 3 1 4 6 9 7 6 10 10 9 11
6 5 11 6 7 4 1 4 8 4 2 4 5 8 11 11 11 12 10 8 9 10 9 7 6 5 3 4 4 5 5 4 4 5 5 5 5 5 8 8 7 6 8 9 10 9 8 6 3
4 6 6 5 7 7 4 5 4 9 3 1 6 10 11 14 13 11 11 8 10 10 10 10 7 5 6 4 3 3 3 4 4 6 5 4 3 3 2 3 4 3 6 2 2 3 1 3 2
1 6 6 3 7 6 10 8 6 5 4 10 11 12 12 15 11 10 10 9 11 11 11 11 10 8 7 4 4 4 4 4 4 5 6 3 3 5 5 4 3 2 2 3 4 2 3 3 5
4 4 4 6 8 7 12 8 9 12 13 13 14 15 13 14 13 9 8 9 7 8 8 7 8 8 6 6 4 4 4 4 5 6 6 5 4 4 3 2 4 5 4 5 3 3 4 2 4
5 5 3 6 6 6 18 7 6 5 10 14 15 14 14 15 10 8 9 8 8 7 9 7 9 7 6 5 5 5 5 6 7 8 9 11 8 8 6 5 6 6 6 7 7 5 4 4 3
0 6 7 5 3 7 7 9 8 9 12 13 14 12 13 12 11 10 8 8 7 6 6 8 7 8 7 6 6 7 7 7 7 8 11 12 12 10 11 9 9 9 8 10 10 6 5 4 4
4 6 5 5 3 2 4 4 9 8 13 11 12 10 11 11 10 9 8 7 8 8 10 10 9 9 9 9 7 6 7 7 7 8 8 12 11 11 9 7 8 8 8 8 8 8 7 4 4
6 3 3 1 2 2 4 6 11 9 12 10 7 8 9 8 10 8 8 8 8 8 9 11 11 11 9 7 7 7 8 7 7 7 8 10 10 9 6 6 6 8 6 6 7 7 7 6 6
2 1 3 3 3 7 6 9 12 9 12 9 7 7 7 7 7 6 7 7 7 7 8 9 8 10 7 5 3 4 6 7 7 7 8 10 8 10 7 6 7 6 5 5 6 7 7 5 6
2 3 7 2 2 8 7 14 12 8 10 8 7 6 6 6 5 6 7 6 7 8 9 8 10 8 7 5 4 3 3 6 7 7 10 10 8 9 7 5 6 7 7 7 8 5 6 3 7
3 8 5 6 5 9 12 10 8 4 4 5 7 6 7 6 6 6 7 6 6 5 6 6 7 7 7 5 3 3 3 3 2 4 6 7 8 8 8 6 6 6 6 8 8 7 5 3 6
2 6 7 7 8 11 13 5 3 1 3 5 4 3 5 5 7 6 6 5 3 7 5 5 5 6 7 6 3 3 3 2 3 5 5 6 8 8 7 6 6 6 6 6 5 5 6 4 4
3 5 10 14 5 6 2 4 4 4 4 5 5 4 5 6 5 5 5 5 3 4 5 6 6 6 6 6 5 6 3 3 2 3 4 6 7 8 8 7 7 5 4 5 5 5 2 2 4
4 7 7 4 4 6 1 4 4 6 7 8 7 7 6 7 7 6 5 6 3 4 4 4 5 7 6 6 6 4 4 2 3 3 6 5 7 6 7 6 6 6 5 6 6 7 6 2 2
8 7 7 5 4 2 2 6 5 7 9 7 6 8 8 7 7 7 6 6 4 3 4 4 4 5 6 5 5 5 5 5 4 5 6 6 5 5 7 9 7 6 6 6 6 6 6 5 4
7 7 4 5 5 6 1 5 7 6 4 10 15 11 8 8 9 8 7 5 3 2 1 1 4 5 6 6 6 6 5 5 5 5 4 6 5 4 7 7 7 6 6 7 6 5 6 6 5
4 6 7 4 3 4 2 4 5 3 4 6 10 9 8 8 7 7 6 5 3 3 2 2 5 6 6 6 6 5 5 4 3 4 4 4 3 5 5 6 6 8 8 8 7 6 7 8 7
3 4 4 8 3 3 3 4 3 3 1 9 11 10 9 9 8 8 6 4 3 1 1 2 5 6 6 5 5 5 5 6 6 6 4 4 4 5 7 7 7 8 9 9 8 7 8 8 7
4 6 4 4 2 3 4 4 6 5 7 6 10 13 8 7 9 7 5 4 2 1 1 4 5 5 5 5 4 4 5 5 5 5 7 7 6 7 6 7 7 8 8 8 7 6 7 7 6
3 3 7 6 4 6 2 7 6 8 13 16 13 11 12 11 10 8 6 4 2 2 3 4 5 5 5 4 4 5 5 5 5 5 6 7 7 9 9 8 7 8 7 7 6 6 7 7 6
2 4 5 7 4 1 3 8 2 5 11 13 13 10 10 11 10 8 6 5 3 2 3 3 3 4 4 4 4 5 4 5 6 6 7 6 7 7 7 7 6 6 6 5 6 6 6 7 7
Wind_Direction
131 121 87 26 41 59 304 103 125 161 111 207 250 140 177 177 198 239 36 63 118 116 79 128 125 117 105 96 94 96 100 103 101 99 94 92 92 94 93 95 94 96 94 94 91 87 82 72 55
124 120 46 53 74 35 297 129 196 192 141 116 67 27 62 116 160 324 40 60 95 92 91 94 115 120 114 114 112 110 108 107 105 100 97 90 84 83 84 83 80 76 75 72 69 62 60 54 45
128 116 76 84 99 10 282 87 134 118 155 162 126 350 354 67 57 21 35 93 38 103 105 112 100 105 107 107 102 100 99 102 104 106 104 98 89 69 54 51 43 36 29 22 22 24 17 357 331
127 16 31 70 336 281 325 12 128 136 167 45 110 68 66 37 36 17 194 119 116 67 93 126 126 125 121 112 105 99 95 93 92 85 73 61 46 34 16 4 359 344 331 320 324 329 326 316 304
40 60 54 24 297 296 3 64 129 144 155 167 172 128 50 58 337 196 186 153 146 124 122 181 163 150 143 134 130 126 124 116 108 104 99 84 59 21 353 336 324 315 310 308 310 314 311 306 309
48 98 62 351 303 324 116 75 47 63 95 127 86 87 277 273 264 240 136 120 165 127 186 274 150 144 134 126 117 122 125 129 130 123 117 108 71 9 330 315 304 303 300 298 295 289 279 270 280
117 85 161 152 287 347 133 105 77 24 45 32 70 88 280 281 299 51 111 90 44 30 19 17 14 33 63 82 105 98 86 89 109 137 144 143 160 180 214 219 245 275 287 292 289 285 279 272 276
104 89 114 203 189 307 15 94 110 93 28 50 84 164 221 263 57 58 58 54 52 37 33 38 35 38 64 45 80 88 99 103 116 180 178 181 187 224 228 232 274 269 266 270 271 272 273 274 275
116 69 179 217 152 201 267 118 45 26 95 13 343 164 40 67 65 55 50 47 33 30 21 43 57 71 73 79 63 45 31 32 49 330 303 287 319 305 262 180 42 22 350 354 322 269 265 279 281
92 125 213 202 171 172 241 106 134 100 62 40 71 63 67 71 66 55 38 34 25 22 11 16 17 38 34 64 45 36 23 15 9 358 351 350 15 358 9 337 14 24 23 12 25 29 29 13 311
173 188 209 225 183 183 128 96 96 117 45 292 145 109 79 73 59 57 47 40 34 29 28 9 12 30 47 43 24 18 5 8 2 354 350 354 353 344 344 351 5 344 2 341 21 356 37 347 312
125 231 198 327 177 143 157 118 70 53 97 97 69 72 79 69 60 62 59 41 29 28 16 13 22 34 33 32 27 6 10 6 2 356 350 342 12 1 14 13 345 7 352 329 318 313 342 20 7
187 259 141 260 107 87 87 77 103 80 72 78 71 63 59 62 55 45 55 57 32 36 18 20 31 35 27 32 16 16 10 15 10 11 4 24 24 14 17 354 340 351 330 310 295 328 326 358 29
204 351 110 42 75 90 108 99 71 75 87 74 68 59 63 66 57 41 34 33 25 25 10 17 29 25 33 41 34 37 23 14 22 28 13 21 18 7 356 359 1 351 342 327 307 299 306 299 329
144 78 44 4 28 117 95 31 87 111 91 80 73 69 60 57 56 46 24 31 12 16 8 21 39 25 31 43 36 36 31 30 25 25 23 25 25 8 12 20 9 354 357 354 349 318 295 295 270
53 72 104 262 223 179 71 163 140 113 95 81 74 71 63 50 54 50 35 30 17 20 22 25 30 29 43 52 53 46 34 31 24 25 26 28 30 21 22 18 11 345 1 356 350 345 340 329 315
9 169 117 163 200 88 82 132 152 117 102 93 79 79 76 59 45 41 44 38 29 22 19 30 20 23 21 41 50 43 47 41 19 20 21 12 23 26 26 16 0 354 1 0 350 337 345 332 343
216 10 82 98 65 39 64 114 121 108 103 106 95 81 80 75 63 48 49 44 43 36 36 35 36 22 18 17 38 52 43 36 27 16 15 8 12 12 19 11 3 356 349 355 351 333 332 311 335
140 101 94 41 331 72 96 131 118 115 105 113 114 115 99 94 91 59 54 48 56 48 54 38 42 13 28 13 359 8 19 20 23 11 5 6 3 9 14 9 4 360 357 347 348 329 334 318 351
172 120 117 49 91 88 127 103 93 99 129 135 146 146 140 110 77 66 51 48 47 56 52 36 39 29 34 32 6 6 347 19 2 347 353 356 357 1 11 5 358 356 356 355 356 358 338 317 358
95 156 165 138 101 66 123 101 148 115 101 127 135 109 80 128 129 104 73 47 39 58 52 57 41 38 37 33 14 4 21 360 349 357 354 345 349 351 351 352 353 351 1 352 334 334 357 330 314
119 121 131 144 120 166 201 206 229 181 173 185 174 180 185 175 142 130 133 89 42 55 45 43 33 32 38 24 37 45 43 4 331 314 323 337 346 343 345 344 345 340 341 339 333 337 316 299 304
162 131 138 132 103 107 158 95 266 140 222 205 197 200 196 190 160 157 132 114 89 58 50 35 42 35 21 30 34 37 26 335 318 334 339 339 339 339 344 345 341 346 342 337 337 345 347 321 291
137 86 57 57 87 49 138 135 255 195 214 185 189 185 195 182 168 140 122 120 101 68 54 34 50 35 22 22 23 34 18 341 349 343 340 337 329 326 346 350 348 341 342 343 339 339 352 353 332
74 58 355 352 12 217 74 102 243 228 222 189 186 187 190 162 153 152 146 138 143 123 60 42 39 38 15 18 19 7 2 352 340 336 328 335 337 332 338 342 347 347 336 343 337 345 355 358 352
57 134 149 218 211 268 305 225 259 269 276 189 174 166 161 143 145 148 147 140 151 112 57 30 46 40 19 13 2 2 4 355 337 331 327 326 326 321 319 337 345 348 355 1 3 14 22 21 19
182 66 153 104 22 53 277 275 281 12 13 167 155 154 167 154 151 146 142 149 148 138 36 54 53 35 18 6 353 1 4 2 350 344 338 333 328 340 354 353 354 0 10 14 16 22 20 22 20
121 148 69 17 159 272 296 282 251 217 206 177 176 176 153 133 135 140 142 160 160 182 58 55 44 26 355 2 3 1 356 355 349 353 354 353 348 349 1 7 12 14 17 18 23 27 22 31 20
51 61 52 109 121 172 240 262 217 211 190 191 188 177 164 152 151 151 157 160 155 95 71 51 33 1 5 5 353 12 8 1 356 5 357 357 1 5 11 7 10 16 18 17 27 26 23 26 17
124 147 131 119 229 124 147 272 189 244 201 184 176 168 141 148 154 153 153 157 144 108 98 60 21 358 5 9 17 17 2 3 11 5 1 3 7 3 3 5 6 8 17 12 25 27 20 24 20